Location: Gleizolles
(44.4833°N, 6.7667°E)
Time: 23:37:04
(UTC+00:00)

Vanguard 2 Rocket - Pass Details

Date: 18 June 2024
Orbit: 555 x 3302 km, 32.9° (Epoch: 24 July)

Event Time Altitude Azimuth Distance (km) Brightness Sun altitude
Rises 09:11:48 0° 275° (W) 6,226 10.8 54.2°
Reaches altitude 10° 09:17:54 10° 261° (W) 4,662 10.3 55.2°
Maximum altitude 09:25:32 19° 223° (SW) 3,161 9.8 56.4°
Drops below altitude 10° 09:31:05 10° 180° (S) 3,211 10.1 57.2°
Sets 09:34:17 0° 162° (SSE) 3,800 10.4 57.7°
